Weather in Borkum

Germany     53°35′23″N   6°39′49″E
temp.,
°C
wind,
m/s
gust,
m/s
humid.,
%
clouds,
%
prec.,
mm/h
press.,
hPa
HPBL,
m
5 december, sun
sun501:00+6s2387100 3.6 995242
04:00+5s2388100 0.2 996258
07:00+4ssw3493100 0.7 997288
10:00+4se3393100 1.6 1000403
13:00+4e4494100 2.5 1003460
16:00+4e5596100 0.6 1006415
19:00+4e8897100 1.1 1009463
22:00+3ene9119289 0.3 1013603
6 december, mon
mon601:00+3e91290100 0.3 1014746
04:00+3e8108690 0.0 1015615
07:00+2se6892100 0.0 1015470
10:00+2sse7890100 0.0 1015469
13:00+3s8984100 0.1 1013777
16:00+4sse91284100 0.0 1009673
19:00+4sse111486100 0.0 1006723
22:00+3sse111595100 1.3 1004813
7 december, tue
tue701:00+2sse71099100 3.6 1003566
04:00+3wnw2592100 2.5 1004361
07:00+8wnw10116799 3.6 10051107
10:00+7w796776 0.1 1007927
13:00+7wsw78739 0.6 1007840
16:00+5ssw68848 0.3 1005384
19:00+3s71091100 0.3 1004374
22:00+3sse91487100 0.0 1002598
8 december, wed
wed801:00+3se111682100 0.0 999713
04:00+2se121792100 0.3 998742
07:00+2se101398100 1.1 998593
10:00+2se91097100 0.3 999405
13:00+3se7793100 0.4 999444
16:00+3ese7889100 0.0 1000467
19:00+2ese81097100 0.0 1001510
22:00+2e81098100 0.2 1002487
9 december, thu
thu901:00+1e8990100 1.3 1003588
04:00+1e898899 0.1 1003597
07:00+1e7988100 0.1 1003614
10:00+1e8983100 0.0 1004855
13:00+2ene7981100 0.1 1003940
16:00+1e5687100 0.1 1003559
19:000ese568292 0.2 1003563
22:000ese4582100 0.0 1003465